Helicity
45 37 41 45 50 54 56 51 52 45 43 47 40 38 39 21 34 28 40 33 51 29 22 11 12 10 9 9 17 23 25 30 27
50 47 40 36 39 46 45 38 42 33 35 38 37 31 44 22 28 22 25 29 25 14 14 6 -2 -10 -11 -6 -5 3 16 20 20
38 47 37 31 30 32 31 26 29 23 26 31 26 27 27 13 23 27 24 40 21 12 10 8 3 -2 -15 -11 -4 3 9 3 9
54 36 26 20 22 21 21 17 19 21 24 31 30 32 31 22 41 33 32 57 25 16 14 16 1 -1 2 2 -1 8 8 12 14
75 40 25 18 17 16 20 22 27 29 36 43 45 35 15 34 41 45 67 51 54 65 69 46 51 54 61 40 23 12 13 8 12
34 69 47 27 21 25 33 39 44 36 38 48 44 19 50 49 55 58 81 62 63 65 69 64 65 62 63 72 89 101 63 43 29
46 49 42 33 27 33 40 47 42 23 45 52 33 50 46 53 59 77 72 71 78 79 81 85 87 76 82 113 125 129 123 123 107
44 46 39 40 40 39 39 43 56 70 72 67 60 53 56 53 54 89 81 87 89 101 109 110 152 135 135 129 130 132 130 121 123
64 59 62 61 57 59 62 84 79 65 61 55 59 58 59 60 61 93 106 105 107 137 162 181 179 153 146 154 151 147 149 144 134
78 78 76 86 95 89 75 76 63 57 57 53 57 60 64 68 78 97 140 141 142 180 192 178 161 154 149 139 126 118 125 124 127
78 104 101 103 95 88 70 78 62 66 64 58 58 66 73 78 93 105 124 183 203 205 183 168 158 154 149 134 120 115 112 114 113
84 93 87 69 70 68 69 66 65 64 63 56 64 72 80 85 92 105 127 122 190 190 186 172 159 149 138 125 117 111 117 115 97
126 120 103 77 90 80 75 69 64 61 49 43 58 59 58 83 97 108 124 138 127 126 162 154 142 128 111 96 98 98 102 108 101
152 116 110 82 89 90 71 65 58 52 41 33 44 59 69 90 110 127 131 136 126 117 110 105 87 92 82 86 93 99 98 96 100
206 136 124 93 93 78 60 58 59 53 39 29 47 75 82 94 106 122 113 113 113 109 108 98 85 61 70 79 90 98 99 96 94
209 136 123 110 100 79 64 61 61 52 45 32 54 65 78 80 89 90 109 127 105 98 108 95 80 83 74 82 103 106 105 108 106
227 136 132 119 94 89 84 64 45 47 56 43 29 55 64 88 89 103 108 122 127 129 107 99 97 95 93 98 93 110 122 141 138
191 139 128 117 96 89 85 73 57 54 56 66 50 44 85 97 90 101 109 115 127 113 92 83 79 77 80 74 87 107 116 129 136
180 147 141 119 99 91 81 72 70 58 66 52 79 89 99 84 71 80 60 121 80 69 68 65 62 63 70 78 73 97 103 119 123
195 162 140 119 102 94 78 70 76 79 75 85 81 79 75 80 92 82 100 87 68 50 42 32 23 30 33 45 45 86 62 66 73
Wind_Speed
25 26 28 30 30 29 29 29 30 31 33 34 35 36 37 38 39 41 40 41 44 44 42 40 39 38 36 37 37 37 36 39 40
23 26 28 29 29 29 29 30 31 32 33 35 35 37 38 40 39 40 41 41 44 44 43 40 38 38 39 37 37 35 40 39 42
20 24 26 28 28 29 30 32 32 33 34 35 37 39 39 38 40 40 42 44 47 46 46 45 43 41 40 41 37 37 40 41 43
18 21 25 27 28 29 31 33 34 35 35 36 36 38 40 40 41 44 43 49 51 50 48 51 48 43 38 37 39 39 39 42 44
21 22 25 27 29 30 32 33 35 35 36 37 38 39 38 40 41 42 46 50 51 51 48 52 53 52 52 50 50 47 44 44 45
20 27 27 28 30 31 32 33 35 35 34 35 38 38 40 42 43 43 49 52 52 52 51 51 51 51 50 51 51 51 52 52 54
26 26 27 27 29 31 32 34 35 34 36 35 35 40 42 43 44 44 51 51 50 49 49 49 49 50 49 48 50 51 52 51 52
24 26 27 27 28 30 31 32 34 37 38 40 42 44 45 46 47 47 51 50 50 48 48 48 47 49 50 51 52 53 53 53 55
26 28 29 29 31 31 33 35 36 37 40 41 43 44 44 46 47 46 51 51 50 47 46 47 49 52 53 54 56 58 59 61 61
25 28 30 31 32 33 34 36 38 39 42 44 46 47 46 46 45 43 48 47 45 43 44 48 50 52 53 55 58 59 60 61 60
26 27 29 31 32 33 35 37 40 42 44 48 49 49 48 46 43 41 42 43 42 43 46 49 51 54 56 58 61 61 62 63 62
22 25 29 31 31 33 35 37 41 43 47 52 52 50 49 43 41 38 37 36 40 43 47 51 54 58 61 63 65 65 67 69 68
20 25 29 31 32 33 36 39 41 46 53 55 51 48 47 40 38 36 37 38 39 42 51 56 59 62 66 68 68 68 71 74 74
20 25 28 31 32 33 35 39 44 51 55 56 51 51 43 38 37 35 37 40 44 48 53 59 62 68 70 70 70 71 75 75 76
19 25 27 30 30 32 35 41 45 52 58 55 54 48 43 37 35 37 41 43 46 52 58 64 67 71 70 72 73 76 77 77 77
19 23 25 27 29 32 37 43 49 54 58 56 54 47 44 41 36 39 47 45 52 55 60 68 72 70 74 73 73 78 78 79 79
19 22 24 24 28 34 41 46 49 52 57 58 54 55 46 43 38 53 46 52 52 60 69 72 71 74 73 72 78 76 79 83 86
18 21 21 23 28 36 41 46 50 54 54 55 55 57 56 63 48 50 55 51 63 68 70 71 73 73 72 73 75 77 84 89 92
18 19 20 24 29 35 41 45 50 53 57 52 53 52 54 63 68 52 59 60 68 71 71 71 77 71 74 78 79 82 88 98 100
18 19 20 25 31 36 41 46 51 53 55 57 57 56 57 55 62 77 68 73 73 74 69 79 70 74 78 80 79 89 100 103 103
Wind_Direction
17 10 1 352 349 346 346 345 344 342 340 341 341 341 341 338 340 339 341 342 339 337 337 337 336 335 333 330 329 328 323 320 316
24 15 6 360 357 355 354 348 346 344 343 342 344 342 341 339 341 341 341 343 340 340 341 341 340 337 333 332 329 327 323 319 314
29 20 12 4 359 356 352 348 347 348 348 347 342 340 340 344 342 342 339 338 335 336 335 334 335 335 332 328 328 326 324 320 315
29 22 10 3 358 354 349 344 346 344 345 346 346 342 341 341 340 337 339 332 329 331 334 330 330 331 331 330 325 323 320 318 316
19 9 356 350 351 352 350 347 344 345 345 345 344 342 345 341 340 339 336 332 332 333 336 331 332 333 334 329 321 317 316 315 314
356 339 344 344 343 344 345 350 349 350 355 353 349 348 345 341 339 338 334 330 331 332 333 335 336 335 333 331 329 327 322 317 312
330 335 339 343 342 343 345 349 352 355 352 353 353 346 341 339 337 337 332 333 334 336 337 337 337 335 336 336 333 330 328 327 324
330 333 336 339 341 344 347 351 351 349 348 347 341 339 337 335 334 334 332 333 334 336 336 337 338 335 333 331 329 328 326 324 321
328 327 330 333 336 340 342 343 347 348 347 346 340 341 342 339 336 335 332 332 333 336 337 338 336 333 330 329 326 322 320 317 315
329 326 327 330 333 336 339 341 341 344 344 342 337 337 338 339 339 340 339 339 341 343 342 339 338 335 332 329 326 324 322 319 317
325 327 328 331 332 333 336 339 338 342 341 335 334 335 337 338 340 340 344 345 346 345 342 340 338 334 331 327 324 323 321 319 317
327 328 329 334 333 334 337 340 341 342 338 330 331 334 336 340 342 345 346 350 348 345 342 339 335 332 328 325 322 320 318 316 314
323 327 329 333 334 335 337 340 343 342 334 331 334 337 338 342 344 346 347 346 344 341 336 332 330 328 325 323 321 319 317 314 311
316 324 330 333 335 338 342 344 345 338 334 332 336 337 341 344 346 346 346 344 338 334 332 329 326 324 323 322 320 318 316 315 313
312 321 329 333 336 339 344 345 347 342 334 334 335 340 342 344 344 343 340 339 336 332 329 326 324 323 322 320 319 318 316 315 313
308 319 329 333 336 341 343 342 340 339 341 337 337 340 341 339 339 340 336 335 332 330 330 326 325 324 321 321 321 318 317 316 314
309 318 327 335 338 339 341 338 338 341 342 338 338 335 337 342 339 332 336 331 332 329 327 325 325 324 322 322 320 320 318 315 313
307 317 327 336 338 336 339 339 339 338 342 344 340 333 330 330 335 333 332 332 329 327 326 326 326 325 323 322 321 319 317 315 312
309 319 328 335 340 339 340 343 341 340 338 341 343 339 335 329 326 332 329 328 326 326 326 325 324 323 322 320 319 318 316 314 311
312 320 328 333 337 340 339 340 340 340 339 339 338 337 335 333 328 323 326 324 326 324 325 322 323 322 321 319 318 317 315 313 311